Wind_Speed
23 22 20 21 22 23 23 23 23 22 22 23 24 24 25 26 27 27 28 28 27 27 26 25 24 24 25 25 25 24 25 27 27 25 24 22 20 19 19 19 19 19 19 19 18 18 18 17 17 18 19 20 22 23 23 22 22 21 20 18 18 18 18 19 19 20 21 20 20 19 19 19 20 20 20 19 18 18 18 18 18 19 19 18 17
25 23 22 21 22 23 24 23 23 22 22 23 25 25 26 26 26 27 27 27 26 26 24 23 23 24 26 25 24 25 26 28 27 24 24 23 21 20 20 19 20 20 19 20 19 19 19 18 19 20 21 21 23 24 24 24 22 22 21 19 19 19 19 20 20 20 20 20 19 19 19 19 19 19 18 18 17 18 18 17 17 18 17 16 16
25 24 22 22 22 23 23 23 23 22 23 24 25 25 26 25 25 25 25 26 25 24 23 24 24 24 25 23 23 25 27 27 26 25 24 23 21 21 20 20 20 20 19 19 19 20 20 20 21 22 22 23 24 25 25 24 23 23 21 20 20 19 19 19 19 19 18 18 18 18 18 18 18 17 16 16 17 17 17 16 16 16 16 16 16
25 24 23 22 21 23 24 23 23 22 23 25 25 25 25 24 24 23 23 24 24 23 23 24 24 23 23 23 24 25 26 26 26 25 24 23 22 21 20 20 20 20 19 19 19 20 20 20 22 22 23 24 25 25 25 23 23 22 20 19 18 18 18 18 17 17 16 17 17 17 17 17 17 16 15 15 15 15 16 16 16 16 17 17 17
25 24 24 23 21 23 23 23 23 22 24 24 25 25 24 23 22 22 23 23 23 22 23 23 23 23 23 23 25 26 26 26 26 25 24 24 23 21 21 20 20 20 19 18 18 19 20 20 21 23 23 24 24 23 22 21 21 21 19 17 17 17 17 17 16 16 16 16 16 17 18 18 18 16 15 14 14 14 14 14 15 15 17 17 17
25 24 24 23 22 22 23 23 22 22 23 24 24 23 23 22 22 22 22 22 22 23 22 23 22 23 22 24 26 26 26 25 26 25 24 24 23 21 21 21 20 20 19 18 18 18 19 20 21 22 22 23 22 21 20 19 18 18 17 15 15 16 16 16 15 15 14 16 17 19 20 20 19 17 16 16 15 15 15 15 15 16 18 18 17
25 25 24 24 23 23 23 24 22 23 23 24 23 22 22 22 21 21 22 21 21 22 22 22 22 22 22 23 25 26 26 25 25 25 24 24 23 21 21 21 20 20 19 18 17 18 19 19 20 20 20 21 19 18 17 16 14 13 12 11 11 13 14 14 14 14 14 16 18 19 20 19 18 17 16 16 17 16 16 16 17 17 17 18 17
26 24 23 24 24 23 24 23 22 22 22 23 22 22 22 21 21 20 21 21 21 21 21 21 21 22 22 23 24 24 25 25 24 24 24 24 23 22 22 21 20 20 19 17 17 18 18 18 19 19 19 19 17 15 14 14 13 11 11 9 9 11 11 12 13 13 14 16 16 17 18 18 18 18 16 15 17 16 17 18 17 17 17 18 18
25 23 23 25 24 24 23 23 22 21 22 22 21 21 21 21 20 19 20 20 20 20 20 19 20 21 21 23 23 23 24 24 24 23 23 22 22 22 22 20 20 20 18 17 16 17 17 17 18 18 18 17 15 15 15 15 15 15 14 12 10 10 10 11 12 13 15 17 18 18 18 18 19 19 17 16 17 17 18 18 16 17 18 18 19
24 23 23 25 23 23 23 22 21 20 21 21 21 20 20 21 20 19 20 20 20 19 19 18 19 21 21 22 22 23 23 23 23 22 22 21 21 21 21 20 20 19 17 16 16 16 16 16 17 18 16 15 14 15 15 15 15 16 15 13 11 9 9 10 10 12 15 18 20 21 21 20 20 19 18 18 18 18 19 18 17 18 17 17 18
23 22 24 24 24 23 22 22 20 20 20 21 19 19 20 21 20 19 20 19 19 19 18 18 19 20 20 21 22 22 22 22 21 20 20 20 20 20 20 19 19 18 17 17 16 16 16 17 17 16 14 13 14 14 14 14 14 14 13 12 10 9 9 8 9 12 15 17 19 21 21 20 19 18 18 18 18 18 18 17 17 16 16 16 16
22 22 23 23 23 22 21 20 20 20 19 20 19 19 20 20 20 19 20 19 18 18 18 18 19 20 20 20 21 21 21 21 19 18 19 18 18 18 19 18 18 17 17 16 16 16 17 17 16 14 13 12 12 12 13 12 12 13 12 11 9 8 8 8 10 13 14 16 19 20 20 19 18 17 17 17 17 17 17 17 16 16 16 16 16
22 21 23 23 22 22 21 19 20 19 18 19 19 18 19 20 20 20 20 19 19 19 19 19 20 20 20 19 20 20 20 19 17 18 19 17 16 16 18 17 17 17 17 16 16 16 16 16 14 13 12 11 11 11 11 11 11 11 10 9 8 8 8 10 12 14 15 18 20 20 19 17 17 17 17 17 16 16 16 16 15 15 16 16 15
22 22 23 22 21 21 20 19 19 19 18 19 19 17 18 19 19 20 20 19 20 19 19 20 21 22 21 20 20 20 20 19 18 18 17 16 15 15 16 17 17 17 17 17 16 16 15 14 13 12 11 11 10 10 10 10 11 10 10 9 9 9 10 13 14 16 19 21 20 19 18 17 17 17 16 16 16 16 16 15 15 14 14 14 14
21 23 23 21 20 20 19 19 19 19 18 18 19 18 18 19 18 19 19 19 19 19 19 20 22 22 22 21 20 20 19 19 18 17 16 15 15 14 14 15 16 17 17 17 16 15 14 13 12 12 11 10 9 9 10 11 11 10 10 9 9 10 11 14 16 17 20 21 20 19 18 16 16 16 16 16 15 15 15 15 15 14 14 13 12
20 23 23 22 20 20 19 19 19 19 18 17 18 18 19 19 18 19 19 18 18 19 19 20 22 22 22 21 20 19 19 19 18 17 15 15 14 12 12 14 16 16 17 17 16 15 14 13 13 12 11 10 9 9 11 12 11 10 10 10 10 11 13 15 16 18 19 19 18 18 17 16 15 15 15 15 15 15 14 14 14 13 13 12 11
21 22 22 21 20 20 19 18 18 18 17 16 17 18 19 18 18 18 18 17 17 17 18 19 20 21 21 20 20 20 19 19 17 16 15 14 13 12 12 14 15 16 17 18 17 16 15 13 13 12 11 10 10 11 13 13 11 10 10 10 11 12 14 14 16 18 18 17 16 16 16 15 14 14 14 14 14 14 14 14 13 13 12 11 11
21 21 21 20 19 19 18 17 17 16 17 16 16 17 17 18 18 18 18 17 16 16 16 18 19 20 19 19 19 19 19 18 17 16 15 13 13 13 14 14 14 15 16 18 17 17 16 14 13 11 11 11 12 15 15 13 11 10 10 10 11 13 14 15 17 18 17 16 15 14 14 15 14 13 13 14 14 13 13 13 14 13 12 11 11
19 19 20 19 18 18 17 18 17 17 17 16 16 15 15 17 17 17 17 16 15 14 15 17 18 18 17 17 18 18 18 17 16 15 14 13 13 15 15 14 13 14 16 18 19 19 17 14 13 12 12 14 15 17 15 13 11 10 10 10 11 13 13 15 16 16 16 15 14 14 13 14 14 13 13 13 13 13 13 14 13 12 11 11 11
18 18 19 18 18 19 18 18 18 17 17 17 16 15 14 15 16 15 15 14 13 12 15 17 17 16 15 15 15 16 17 16 15 14 13 13 13 15 15 14 13 13 16 19 21 21 18 15 14 13 15 16 16 16 15 13 11 10 10 10 11 12 13 14 15 15 15 16 15 14 13 12 12 12 12 12 12 12 13 13 12 11 10 10 10
17 17 18 18 18 18 18 18 18 18 18 17 17 15 14 14 14 13 13 13 12 11 13 16 15 15 14 14 14 16 16 15 15 14 13 12 13 15 15 14 13 13 15 20 22 22 19 16 14 14 16 17 16 15 14 12 11 10 11 11 11 11 13 13 13 14 16 17 15 13 12 11 11 11 10 11 11 11 12 12 12 12 12 11 11
18 19 18 19 19 18 18 18 18 17 18 17 17 14 14 15 14 13 12 12 11 11 13 15 15 15 15 15 14 15 16 14 14 13 13 12 13 15 14 13 13 13 16 20 23 22 20 17 14 14 15 16 15 14 13 11 10 10 11 11 11 11 12 12 12 13 14 15 14 12 11 10 10 10 9 9 10 11 11 11 12 12 12 12 11
20 21 19 19 19 18 18 18 17 16 17 16 16 14 15 16 15 14 13 12 12 13 15 15 15 15 15 15 14 15 15 14 13 12 12 12 12 14 14 13 14 14 16 20 21 21 21 18 15 15 15 15 15 14 13 11 10 10 10 10 11 11 11 11 11 12 13 13 12 11 10 9 10 9 9 9 9 9 10 10 12 12 12 11 11
23 22 21 20 19 19 18 18 18 17 17 16 16 16 16 17 16 15 14 14 13 14 15 15 15 15 15 15 14 14 14 13 12 11 12 12 12 13 14 13 14 15 16 19 19 19 20 18 16 14 15 15 15 14 13 12 11 10 10 10 10 10 10 10 11 12 13 12 11 10 10 10 9 9 9 9 9 8 8 9 10 10 11 12 11
25 24 22 21 20 20 21 21 19 19 19 19 18 17 18 18 17 15 15 15 14 15 15 14 14 15 16 16 15 14 13 12 12 13 13 13 13 14 15 14 14 14 16 19 19 19 19 18 16 14 14 14 14 14 13 12 11 10 9 9 9 9 9 9 10 12 12 10 9 10 10 9 9 9 9 9 8 8 7 7 8 9 11 12 11
22 23 23 23 22 21 23 22 21 20 20 21 19 18 18 19 18 17 16 15 15 15 15 14 15 16 17 16 15 14 14 13 13 14 13 13 14 14 15 15 14 14 14 17 19 18 18 17 16 14 13 14 14 13 13 12 11 10 9 9 9 8 8 8 9 10 10 9 8 8 9 9 8 8 8 8 8 8 7 7 7 8 10 11 10
21 21 22 24 23 22 23 23 22 21 21 21 19 18 18 19 19 18 17 16 16 16 15 15 16 16 17 17 16 16 15 14 13 14 14 14 14 14 16 15 14 14 13 16 18 18 17 16 15 14 13 13 13 13 12 12 11 10 9 8 8 8 8 8 9 9 10 9 8 7 8 9 9 7 7 8 7 7 7 7 7 7 8 9 9
22 21 22 23 24 23 24 24 23 23 23 23 22 21 20 19 19 18 17 18 18 17 17 17 17 16 16 17 16 16 16 15 14 14 14 14 14 14 15 15 15 14 13 15 17 18 17 15 15 14 12 11 12 12 12 11 10 9 8 8 8 8 8 8 8 8 8 8 7 7 7 9 8 6 7 7 7 7 6 5 5 7 8 9 9
23 23 22 23 24 23 23 23 22 22 22 23 24 24 22 21 20 20 19 20 20 19 18 18 18 17 16 16 16 16 16 15 15 14 15 16 14 14 15 15 15 15 14 14 15 18 17 15 14 13 11 10 9 10 11 10 10 9 8 8 8 7 7 7 7 7 7 6 6 6 7 7 6 6 7 7 6 6 5 5 6 6 6 7 8
24 24 23 23 24 24 23 20 20 20 20 21 22 24 24 21 21 21 21 21 21 20 19 19 19 18 17 17 16 16 16 16 15 14 15 17 16 15 15 15 15 15 15 14 14 16 17 15 13 13 11 9 8 8 9 9 9 9 9 8 8 7 7 7 7 6 6 6 6 7 6 6 6 7 7 6 5 6 6 6 6 5 5 7 8
22 23 24 24 25 25 23 21 20 20 20 20 21 24 24 22 22 23 22 22 22 20 19 19 21 20 18 18 17 17 17 15 14 14 15 16 17 16 15 16 15 15 15 14 13 14 16 15 12 12 11 9 7 7 7 8 9 10 10 9 8 8 7 7 7 6 6 6 6 6 7 6 7 7 6 6 5 6 5 5 5 5 6 8 8
21 23 24 23 22 22 22 22 22 22 22 23 23 23 23 23 23 23 23 23 22 21 20 21 22 21 19 18 17 17 17 15 13 14 14 15 16 16 16 18 17 16 16 14 13 13 14 14 12 11 9 8 7 7 7 8 9 11 11 10 9 9 8 7 7 7 7 7 6 7 8 7 7 6 6 6 5 5 5 4 5 6 7 8 9
23 23 22 20 20 22 24 25 25 25 24 24 24 23 23 24 23 23 24 23 23 21 21 22 22 21 19 18 18 19 17 15 14 14 14 15 16 16 16 18 18 17 16 15 14 13 13 13 11 10 9 8 7 8 10 10 10 11 11 11 10 9 8 8 7 8 8 8 7 8 8 8 7 6 6 6 5 5 6 7 8 8 8 8 9
24 21 18 18 21 26 28 28 27 27 26 26 26 25 25 26 25 25 25 24 23 21 21 21 21 21 20 19 19 20 18 16 14 14 15 15 16 16 15 16 17 17 16 16 15 14 14 12 11 10 8 8 8 11 13 12 12 12 12 12 11 10 9 8 8 8 9 8 8 8 8 8 7 7 7 7 7 6 7 8 8 7 7 8 7
24 21 20 22 25 28 29 29 29 30 32 32 32 31 30 28 27 26 26 25 23 21 20 20 20 21 20 20 20 20 19 17 15 15 16 16 17 17 15 15 16 17 16 15 14 14 13 11 10 10 10 8 9 13 15 14 13 13 13 13 12 12 10 9 9 9 9 9 9 8 8 8 8 8 8 8 8 7 7 7 7 6 6 6 5
24 24 26 27 26 27 29 30 32 33 35 34 33 33 32 31 30 28 26 24 22 20 20 19 20 21 20 20 20 20 20 18 16 17 17 17 17 17 16 15 16 16 15 14 14 14 12 11 10 11 12 10 11 14 15 15 14 13 13 13 13 13 11 10 10 11 10 10 9 8 9 10 9 9 8 8 7 6 6 6 6 6 4 4 4
24 26 27 28 28 30 33 33 33 34 34 33 31 30 30 30 30 28 25 23 22 20 19 20 20 21 20 20 20 20 20 19 18 18 18 18 18 18 17 16 15 15 15 15 14 13 12 12 12 13 13 12 13 15 16 15 14 13 13 14 14 13 13 13 11 12 12 11 9 8 10 11 10 8 8 7 6 5 5 5 5 5 4 4 3
23 25 26 28 31 33 34 33 33 33 33 32 31 30 29 27 26 25 24 22 21 20 19 20 20 21 21 20 20 22 21 20 20 20 19 19 19 19 18 16 16 16 16 16 15 14 13 13 15 15 13 13 14 16 16 15 14 13 13 13 14 14 14 14 13 13 13 11 9 8 10 11 9 8 8 7 5 5 4 5 5 5 5 5 4
21 24 26 29 32 33 33 31 32 33 33 30 29 28 27 26 24 23 23 21 20 20 21 22 22 23 22 21 22 24 23 22 21 21 20 20 20 19 18 17 17 17 17 17 17 17 15 16 16 16 15 13 14 16 15 15 13 11 11 11 12 13 12 13 14 14 14 11 9 9 10 11 10 9 9 7 5 5 4 4 4 4 5 6 6
21 24 27 30 32 33 31 31 33 33 31 29 27 26 26 25 25 23 21 21 22 22 23 24 23 23 22 21 23 25 24 23 22 22 22 21 21 19 18 18 18 18 19 19 20 19 17 18 18 17 16 14 13 15 15 15 13 9 8 8 8 10 10 11 13 14 12 10 9 10 11 11 10 9 9 8 6 4 4 4 3 3 3 4 4
20 24 28 31 32 32 32 33 33 32 31 30 28 27 26 25 24 24 22 21 23 25 25 26 24 23 22 22 23 24 24 24 24 24 24 23 21 19 19 19 20 20 19 20 20 19 18 19 18 17 17 15 13 13 15 16 13 10 8 7 7 7 8 9 10 11 11 10 10 11 13 12 11 10 9 8 6 4 4 3 3 3 3 3 3
21 26 30 31 30 31 33 33 32 31 32 32 30 28 28 25 23 23 22 21 23 27 27 26 25 23 23 22 24 24 24 25 26 26 26 25 22 20 19 20 21 21 20 20 20 20 20 21 20 18 16 15 14 15 17 16 11 11 10 8 6 5 6 6 7 8 9 10 10 9 10 12 11 10 10 8 6 4 4 4 3 3 3 3 3
22 26 29 29 30 32 33 33 31 30 30 31 30 29 27 25 22 20 19 18 21 26 27 26 25 23 22 22 24 24 25 26 27 27 28 27 24 21 20 21 22 22 22 22 21 21 21 21 21 19 16 14 14 16 19 16 13 14 11 6 4 3 4 3 4 6 7 8 8 6 6 9 9 10 10 8 6 4 3 3 3 3 3 4 4
23 27 27 27 29 31 31 31 30 27 26 27 27 27 26 23 23 20 18 18 19 21 23 24 25 24 23 24 24 24 24 26 27 27 28 29 26 23 21 22 23 23 23 23 22 21 21 21 21 21 18 16 15 17 20 17 16 17 9 3 2 2 1 3 4 3 3 4 5 6 6 7 8 9 9 8 6 5 3 3 2 2 4 5 6
19 22 24 26 26 26 24 24 24 21 19 20 21 22 22 22 21 18 17 18 17 19 22 24 25 26 26 25 24 23 23 25 28 28 28 30 28 25 23 23 23 24 24 22 21 21 21 22 22 22 21 19 17 19 20 17 17 18 11 5 4 1 2 4 5 3 2 4 4 4 6 6 7 8 9 8 6 5 4 2 2 3 4 5 6
9 10 8 9 10 12 13 14 15 14 13 14 15 16 17 18 18 17 17 17 15 17 21 23 24 25 25 24 24 23 24 26 28 28 28 29 29 27 25 25 25 25 25 23 21 21 22 23 23 22 22 22 20 20 21 19 19 18 12 8 5 2 5 8 5 1 3 5 4 5 5 6 8 8 8 8 8 7 5 2 2 4 6 5 6
16 17 18 21 22 20 15 13 14 13 13 13 13 14 15 14 14 16 15 14 13 12 13 16 20 23 23 23 24 24 25 27 27 28 27 28 28 27 26 26 26 26 26 24 22 21 22 23 23 23 22 23 22 22 22 21 21 18 13 10 5 4 10 12 6 4 4 4 5 7 7 6 8 9 8 8 8 8 6 3 2 4 6 6 5
13 10 8 11 14 16 14 13 15 15 14 13 12 14 14 12 12 12 12 11 10 9 8 10 15 19 22 23 24 25 26 27 27 26 27 27 27 26 26 26 27 28 27 25 24 22 23 23 23 23 23 24 24 23 23 23 24 21 16 12 5 5 12 12 10 8 5 3 5 6 7 7 8 8 7 8 9 9 7 4 3 5 6 6 5
13 11 7 5 5 4 6 9 13 16 18 17 13 12 12 13 13 12 11 9 8 7 6 7 11 16 21 23 24 26 26 27 26 25 27 27 26 25 25 26 26 27 27 27 26 24 24 24 24 24 25 26 25 23 24 26 26 24 21 15 7 9 12 9 10 11 6 5 5 5 7 7 7 8 9 8 8 8 7 5 4 5 6 5 4
13 12 8 3 1 2 3 7 9 13 19 19 16 13 12 12 14 13 12 10 8 7 6 7 10 15 19 22 24 25 24 24 24 24 25 25 24 24 25 26 26 27 27 28 27 26 25 25 25 25 25 26 26 25 24 24 26 25 23 19 13 14 12 7 10 11 6 4 4 6 10 9 7 8 9 9 8 9 8 7 6 6 6 6 4
18 16 14 10 5 2 3 6 8 10 14 15 14 15 14 13 13 12 11 11 9 10 9 8 10 13 17 20 21 21 22 23 25 24 24 23 23 24 25 26 27 26 26 27 28 28 26 25 25 26 25 26 26 25 24 22 23 23 23 22 19 17 14 10 14 16 10 6 5 7 11 11 8 8 9 10 9 9 9 9 8 7 7 7 5
Wind_Direction
159 157 158 160 157 151 148 146 142 141 140 140 139 138 136 134 133 133 133 133 133 134 135 135 132 129 127 123 120 117 118 116 112 111 111 111 107 105 105 104 104 104 103 102 101 101 99 100 100 101 104 104 103 102 104 105 106 106 103 101 101 99 96 94 94 94 93 93 95 97 95 93 91 89 88 89 89 88 86 86 86 83 80 77 75
156 155 157 159 157 152 149 146 144 142 141 142 140 139 136 134 133 132 131 130 131 132 131 129 126 126 125 122 121 121 121 118 114 115 116 113 109 108 108 107 106 105 104 102 101 100 97 100 100 99 103 104 103 101 101 103 105 104 101 99 98 97 95 93 93 93 94 94 95 97 95 93 90 88 87 89 89 87 86 82 82 80 76 74 72
151 153 156 156 156 153 151 147 145 144 144 143 141 139 137 134 132 130 129 129 128 126 126 125 125 125 124 124 124 124 122 118 116 117 117 114 113 113 111 110 109 106 103 102 100 97 94 97 99 100 102 104 103 101 101 101 102 100 98 97 95 94 93 93 94 95 97 97 97 96 93 91 90 90 91 91 89 86 84 80 78 77 71 68 69
149 151 153 154 156 153 151 148 146 146 146 145 143 140 136 134 131 128 127 128 125 123 125 126 128 126 125 126 124 122 120 118 117 117 116 116 115 114 115 114 113 110 105 103 99 96 95 95 96 100 101 102 102 100 100 99 99 98 97 96 96 95 95 95 96 97 98 99 98 95 92 90 88 89 90 89 89 84 81 79 77 75 69 67 70
147 150 152 154 154 152 151 148 147 147 148 147 144 141 138 134 130 128 127 127 125 125 128 129 129 127 126 125 123 121 120 120 120 119 118 116 115 115 116 117 115 113 108 104 101 99 99 96 96 99 101 102 101 99 100 100 100 99 96 95 98 98 97 98 97 98 99 99 96 93 92 92 89 85 84 84 86 84 81 79 78 76 74 74 76
147 149 151 154 153 151 151 149 147 148 149 147 143 140 140 136 131 130 129 126 125 128 130 130 129 127 125 123 123 123 122 122 121 121 120 117 116 116 118 118 117 116 112 105 102 101 101 98 96 98 100 102 100 99 102 105 105 100 89 87 96 98 97 95 95 97 100 99 95 93 93 93 91 87 86 88 87 84 84 81 80 80 79 82 82
148 149 152 155 152 152 151 148 147 149 149 147 143 139 140 136 132 132 129 125 127 130 130 130 129 127 126 124 124 123 123 122 121 121 121 121 119 118 119 120 118 117 115 108 104 103 101 99 97 98 100 101 100 99 102 105 109 103 91 87 93 98 98 95 95 97 100 100 96 93 91 90 89 89 88 87 86 84 84 83 83 84 85 86 83
148 150 154 156 154 154 151 147 148 151 151 147 143 142 142 136 132 131 128 127 129 131 130 130 130 128 127 125 124 122 122 121 121 121 121 122 121 121 121 120 120 119 117 112 108 106 104 101 100 98 100 101 96 92 91 93 97 98 106 112 104 100 99 97 96 96 98 98 97 97 94 91 88 88 88 86 85 85 86 86 86 88 89 88 86
148 151 156 157 154 154 151 148 149 152 152 146 142 143 141 135 132 131 129 130 130 130 129 130 130 128 127 125 123 122 121 120 120 119 119 120 122 123 124 125 125 123 121 117 113 111 107 104 104 104 104 99 89 84 84 86 87 89 102 114 112 104 100 98 95 94 96 95 97 100 97 94 90 89 90 89 88 88 88 87 85 86 86 87 86
150 154 157 155 153 155 153 150 150 151 149 144 144 144 140 135 132 132 132 132 130 130 130 131 131 129 128 126 124 123 121 121 120 120 121 123 123 124 125 129 130 126 123 120 117 114 111 109 111 111 106 94 84 81 82 86 86 87 95 103 107 106 103 99 93 93 97 96 95 95 92 93 93 93 92 89 89 89 89 86 81 82 84 84 82
153 155 156 154 154 156 153 151 149 148 146 144 144 142 139 135 133 133 132 132 130 131 131 132 132 130 130 128 126 124 122 122 121 122 126 126 125 124 125 128 129 129 127 124 121 118 115 116 116 111 101 90 84 81 82 88 89 89 92 97 104 106 104 98 94 98 99 96 93 94 94 94 92 91 91 89 91 91 90 88 85 83 82 82 79
154 155 153 152 155 155 153 151 147 144 145 145 143 141 141 136 134 134 132 133 133 134 134 133 133 133 132 130 129 126 125 124 124 126 127 124 123 124 125 126 128 130 131 129 124 122 122 122 118 109 99 92 86 83 85 90 93 93 95 99 103 104 104 101 104 105 100 97 96 95 95 94 91 90 93 94 93 93 91 90 89 86 85 84 81
153 153 150 153 156 155 152 150 145 142 144 145 143 144 142 137 137 137 136 137 138 139 138 137 136 136 135 133 132 130 129 127 127 129 126 121 119 122 124 125 127 130 134 133 131 129 128 126 120 112 104 96 89 85 87 94 100 100 100 101 102 106 109 111 112 109 103 102 101 98 96 95 93 91 94 95 93 92 92 92 90 88 89 87 83
152 152 151 155 155 153 151 146 143 141 144 145 144 147 143 140 142 141 141 142 144 145 143 143 140 139 139 137 136 135 133 130 129 128 124 123 123 125 126 128 130 133 138 140 140 137 133 129 122 117 109 100 92 85 88 101 109 107 104 100 102 109 116 119 115 109 106 105 104 102 101 98 95 95 95 96 94 93 93 93 88 87 89 88 86
151 151 151 155 153 152 152 147 145 144 147 148 149 151 146 144 149 146 146 148 149 150 147 147 144 143 142 140 142 140 136 132 129 129 127 127 129 128 127 130 134 137 142 145 146 141 136 131 125 119 111 101 92 86 94 109 114 108 101 98 102 111 120 122 117 112 110 108 106 104 101 99 100 100 99 99 96 94 95 93 87 86 89 90 89
148 149 151 153 153 153 155 153 151 151 151 153 154 154 151 150 153 151 151 154 153 152 149 149 147 145 145 145 145 141 137 134 131 132 133 132 132 131 128 129 134 139 145 149 149 143 137 133 127 119 108 99 91 92 102 112 113 104 98 98 103 112 120 122 119 116 114 112 110 110 108 104 103 100 100 99 96 95 95 94 91 88 89 93 92
146 149 151 152 154 156 158 156 154 154 155 156 157 157 157 155 155 155 157 158 155 152 150 150 149 147 148 148 145 141 138 138 136 137 138 137 136 134 130 129 133 139 147 152 151 142 138 135 125 115 105 99 98 105 112 116 111 102 98 99 105 114 119 118 116 117 117 115 113 114 112 104 102 101 101 101 100 98 96 95 94 89 89 92 90
146 150 151 152 154 156 157 155 156 157 158 159 159 162 164 159 158 160 161 160 155 151 150 151 151 149 150 149 146 142 140 141 141 141 141 139 138 138 134 130 132 138 147 153 150 142 139 134 120 112 108 107 110 114 118 118 111 103 100 101 109 116 118 116 117 119 118 115 113 114 111 106 106 105 104 105 104 102 101 99 96 92 91 91 90
146 150 150 152 153 154 156 158 162 161 162 164 161 165 170 163 161 164 163 161 155 152 152 152 151 148 150 150 149 145 142 143 145 144 144 140 138 138 136 133 132 137 147 152 149 143 139 131 119 115 114 114 115 117 120 119 112 105 102 104 114 119 117 117 120 121 117 114 112 109 105 105 106 104 103 106 106 105 104 101 99 98 96 93 91
146 150 150 154 154 155 159 163 167 166 167 167 164 169 173 166 165 167 163 161 157 156 155 152 149 147 149 151 150 147 146 149 149 148 147 142 139 139 139 137 135 136 145 149 147 142 137 130 124 122 118 116 117 120 123 120 114 108 102 105 116 121 120 120 122 119 113 109 106 101 98 99 102 105 106 107 106 106 108 105 101 99 96 95 93
148 153 154 157 158 158 162 166 170 171 170 167 166 170 173 169 168 166 160 161 159 159 158 153 152 151 152 153 151 149 151 155 151 151 151 143 141 142 142 141 138 138 144 148 146 141 135 133 131 125 119 118 120 123 124 121 117 110 102 104 113 121 124 123 122 119 114 109 107 105 105 105 106 106 105 107 107 106 107 105 102 97 94 92 92
155 157 160 161 160 163 165 168 170 172 172 168 167 167 171 171 168 165 161 165 164 161 162 160 161 161 160 160 158 156 157 159 155 156 153 146 147 146 146 144 141 139 145 149 146 141 137 137 135 125 119 120 124 126 127 125 120 113 103 104 112 120 125 123 122 122 119 115 114 114 114 114 110 107 104 104 105 106 107 105 102 99 97 96 97
164 161 162 163 163 166 168 169 168 170 173 170 169 169 173 172 170 168 165 170 170 168 169 168 170 171 169 166 165 165 164 164 164 162 153 150 153 151 149 147 145 142 145 151 149 143 140 141 136 125 120 123 128 132 136 136 128 118 109 108 113 119 123 121 120 124 123 118 117 118 116 112 110 110 108 105 102 103 105 105 105 105 106 103 99
169 163 162 163 166 169 169 169 169 172 174 172 172 175 176 175 173 172 172 174 174 174 175 175 178 179 178 175 174 172 168 167 168 169 161 157 158 158 156 151 151 148 148 154 153 147 143 142 138 128 123 128 134 138 142 142 134 125 116 112 113 118 121 119 118 120 121 119 121 123 119 116 115 115 111 107 105 103 103 106 109 111 111 106 101
166 163 162 163 167 172 174 174 175 177 177 177 177 179 178 177 176 176 178 177 176 177 180 181 180 183 185 184 183 178 173 172 171 171 169 165 164 165 164 159 157 154 152 158 159 152 147 144 140 133 126 128 134 139 142 140 136 132 122 117 116 118 121 119 118 119 122 127 130 129 126 124 117 114 111 107 107 106 105 106 107 106 107 106 105
162 162 163 165 169 174 180 180 179 179 180 180 178 180 180 179 179 179 179 176 178 181 183 182 179 185 188 188 189 186 182 180 175 173 175 174 171 171 169 164 161 158 155 160 163 156 149 146 142 137 128 124 128 134 140 138 136 136 129 125 122 120 123 123 121 121 123 123 120 119 123 118 108 112 113 108 109 110 109 107 106 108 109 109 107
163 165 166 169 174 176 182 183 182 180 180 179 177 180 182 184 184 181 181 178 181 185 187 185 183 188 188 190 194 192 190 185 180 179 181 181 178 176 173 168 163 162 160 162 167 161 153 149 143 139 132 125 125 132 139 140 138 138 134 131 128 125 127 129 127 124 122 120 118 123 127 122 120 126 120 112 113 112 113 115 115 114 110 107 106
168 171 170 171 179 182 185 188 187 183 181 180 180 182 185 191 188 183 186 183 183 188 192 191 189 190 187 192 196 196 197 191 186 184 188 188 182 179 175 172 167 166 166 165 169 167 160 154 146 140 137 132 130 134 139 141 144 143 139 137 136 131 131 134 132 128 130 134 139 141 133 129 133 131 119 116 116 116 116 113 111 111 110 111 110
175 177 175 174 181 186 188 190 191 187 184 184 184 185 187 193 188 184 188 186 186 190 197 196 192 192 190 195 199 200 203 198 192 189 193 193 186 181 178 177 173 172 172 169 169 170 169 163 151 144 143 141 137 139 141 143 150 152 150 147 144 138 136 141 142 141 145 149 149 139 131 139 141 125 119 117 115 116 114 109 108 113 118 116 111
179 180 180 178 183 187 187 189 193 191 190 188 187 189 191 193 191 189 190 188 189 194 199 199 196 197 197 198 201 204 209 207 200 194 196 196 189 184 182 182 181 179 178 174 170 172 175 172 158 150 150 148 144 147 148 148 155 163 164 159 152 147 145 148 155 158 154 152 150 142 145 154 138 119 119 119 114 116 119 123 124 126 120 107 102
181 181 184 185 186 187 186 191 196 195 194 192 193 197 196 195 196 195 193 192 192 194 199 203 202 201 202 202 203 207 212 212 208 203 200 198 193 188 189 189 187 185 183 179 175 174 178 178 165 158 158 156 151 155 161 159 163 172 176 170 164 160 156 157 164 168 163 158 158 154 151 143 126 121 126 129 127 129 131 136 138 135 120 108 102
182 184 187 188 187 185 187 193 197 200 200 199 201 205 201 199 201 198 195 197 195 194 198 205 205 204 206 207 208 211 213 213 211 209 206 202 197 194 195 192 190 189 186 185 186 181 182 182 173 166 168 169 166 168 175 175 174 180 183 180 177 173 166 166 171 172 170 167 162 158 150 137 131 136 138 135 137 140 141 140 132 119 110 109 105
184 186 185 185 188 190 194 198 199 202 204 204 207 208 205 203 205 202 200 202 199 197 200 204 205 206 209 210 212 214 215 215 213 213 212 207 201 198 197 194 191 189 188 190 192 192 190 188 183 179 181 185 189 185 182 183 186 188 189 189 186 182 176 172 176 177 175 172 165 161 153 146 145 147 143 141 140 135 130 124 116 109 109 112 109
186 180 174 181 195 201 203 202 200 203 206 207 209 208 206 206 207 205 205 207 204 199 200 203 205 208 211 213 215 216 218 218 215 216 215 210 205 200 196 192 191 189 189 192 194 198 199 196 193 189 191 195 198 191 185 186 190 191 191 194 194 190 184 177 179 179 174 171 168 165 157 151 147 142 142 143 139 128 122 118 115 119 125 122 117
185 171 176 190 201 207 207 206 204 207 209 210 209 207 206 206 207 207 207 209 207 202 199 201 208 213 215 217 219 219 220 221 218 219 218 214 206 199 193 187 185 186 188 190 192 197 201 201 197 192 192 192 190 184 184 189 191 192 193 195 198 195 187 182 183 179 172 172 173 168 157 150 144 139 138 138 136 132 128 130 134 139 137 126 123
184 176 187 194 198 207 210 210 209 211 212 212 210 207 205 205 205 205 206 207 207 206 201 202 210 215 216 220 223 222 222 223 220 220 221 218 208 199 192 184 182 184 188 192 194 196 199 200 198 197 193 185 181 179 183 190 189 191 194 195 199 197 189 186 186 180 175 178 180 172 160 156 152 147 145 142 141 142 143 148 151 153 150 138 133
189 184 190 192 198 210 213 213 212 213 214 214 214 212 210 208 206 203 202 203 207 208 208 209 212 215 215 217 224 226 225 224 221 220 222 219 210 200 194 190 188 189 194 197 200 201 202 201 195 195 197 190 182 177 179 186 190 191 192 196 199 197 193 191 189 183 181 184 185 179 169 166 163 160 159 156 155 158 166 173 172 176 177 170 172
192 188 190 195 203 213 216 215 214 216 216 216 217 216 214 213 211 207 203 203 204 210 215 215 215 217 216 213 221 229 228 226 223 221 222 218 211 204 202 199 197 199 201 202 205 205 204 203 194 189 196 198 190 183 180 181 185 188 189 194 197 198 197 192 190 187 187 189 188 182 178 175 173 171 170 169 173 183 195 198 197 205 205 205 212
193 190 194 201 209 217 219 217 217 218 218 218 219 216 214 214 214 212 208 204 201 208 217 219 217 218 217 213 219 226 228 228 225 222 222 217 211 209 209 206 205 206 203 203 206 207 203 199 196 191 190 197 198 189 181 175 172 174 181 186 194 201 198 189 191 194 193 194 193 188 184 182 180 179 180 182 186 194 207 215 210 216 217 220 227
192 191 198 207 213 218 220 220 221 220 217 218 218 216 213 212 213 212 208 203 200 206 216 220 220 220 218 216 217 221 225 227 227 224 222 218 212 213 215 211 209 208 204 205 206 206 203 196 196 194 186 185 189 186 180 173 160 152 165 171 185 201 200 194 196 199 200 202 205 200 191 191 193 191 189 190 192 195 208 223 218 217 218 218 223
189 194 205 211 215 218 221 224 224 221 218 217 216 213 213 212 212 212 208 201 199 205 214 219 221 223 223 221 219 218 220 224 227 225 223 221 216 216 218 213 209 208 207 208 206 204 202 197 196 194 190 181 173 177 180 170 150 140 148 146 156 181 194 202 205 208 209 207 218 214 198 199 202 198 197 193 195 202 215 228 220 212 213 205 199
189 200 210 212 216 220 224 227 226 223 221 220 217 213 214 213 214 218 216 204 199 205 213 218 222 225 224 222 221 219 216 220 224 224 223 222 219 218 218 212 209 208 209 208 204 201 198 198 195 190 191 184 174 176 176 166 149 146 146 132 135 151 162 186 205 215 214 209 226 231 207 204 201 197 201 196 198 208 216 226 214 200 198 179 159
195 207 213 213 216 221 225 228 228 226 224 222 219 217 217 217 218 225 229 217 208 212 216 218 221 224 224 222 223 221 217 218 221 223 223 222 221 220 218 215 211 209 208 205 201 202 201 200 199 194 187 173 170 179 178 172 159 148 141 134 150 144 135 168 199 212 216 211 226 238 214 205 196 194 200 196 202 212 208 214 208 187 173 151 140
201 209 211 212 218 222 225 229 231 231 229 225 223 222 221 222 221 228 239 231 219 218 220 222 222 223 223 222 224 223 219 218 220 223 223 222 221 220 220 218 214 211 210 208 206 209 208 200 199 199 191 171 161 175 183 184 173 158 143 115 131 134 158 179 164 166 204 206 225 235 213 201 192 192 199 200 205 206 197 204 190 161 153 144 145
214 218 217 218 222 227 232 237 240 242 240 234 230 228 226 226 226 230 237 231 220 213 212 217 219 221 223 224 226 226 221 221 222 224 224 224 223 221 221 220 217 214 215 217 216 217 214 205 201 202 200 190 175 175 185 195 192 179 164 140 133 173 210 169 149 135 182 190 218 234 211 208 206 196 198 207 210 200 189 192 166 149 148 149 151
338 339 323 296 284 278 270 264 266 267 265 254 245 243 242 237 231 228 226 220 212 207 207 211 213 216 222 226 229 227 223 223 224 225 226 227 225 223 221 220 219 218 219 223 222 218 214 209 207 207 206 205 191 180 187 199 201 194 184 174 167 179 167 155 155 158 166 182 206 213 203 211 211 198 199 214 218 205 192 186 161 148 149 155 159
13 12 11 5 1 357 342 312 296 289 282 279 276 273 269 262 245 229 221 215 214 222 224 221 216 215 220 226 229 226 222 222 223 225 227 227 227 225 222 221 220 221 222 223 222 218 214 212 212 211 210 207 195 185 188 193 197 201 199 184 158 145 163 160 163 155 149 174 184 187 194 201 201 197 206 219 216 206 197 191 176 157 155 160 167
19 2 346 346 352 356 347 314 291 280 273 276 287 289 277 271 264 244 232 227 230 247 254 237 222 218 221 223 225 225 221 220 221 223 225 225 226 225 223 222 221 222 223 223 221 219 217 216 215 213 211 208 202 195 192 190 194 200 198 187 164 159 174 176 176 161 141 161 167 177 189 193 202 206 210 213 209 208 207 203 186 169 168 169 174
9 356 333 313 312 329 336 309 284 271 263 256 263 285 278 265 268 265 257 254 253 258 263 245 229 223 222 222 223 224 220 219 221 223 223 223 224 225 224 223 223 222 222 222 221 221 219 218 217 214 212 211 209 205 199 196 198 200 196 194 182 166 172 177 177 162 138 155 169 180 178 177 200 212 212 209 206 211 215 215 202 184 183 183 189
2 359 2 10 110 128 22 346 313 282 271 263 260 274 279 262 257 261 260 259 258 256 254 239 229 226 223 221 222 222 219 218 222 225 226 225 225 226 226 224 224 224 223 222 221 221 220 220 220 217 214 215 213 209 207 206 206 204 199 196 181 164 162 158 171 168 147 151 173 184 179 176 186 195 205 210 208 211 215 219 214 199 197 200 210
17 10 8 11 24 56 360 346 339 310 292 286 277 275 276 261 251 256 255 252 253 248 241 231 225 223 223 223 222 221 220 220 223 227 228 229 228 227 227 226 225 224 224 223 222 222 221 220 220 219 217 218 217 212 211 213 213 209 205 203 196 186 183 179 181 178 169 161 162 175 182 183 183 181 193 205 210 214 216 218 217 211 208 209 219
Height
770 773 776 779 781 783 784 785 787 788 789 791 792 794 794 795 795 795 795 795 796 797 799 801 802 803 803 803 804 804 805 805 807 809 811 812 813 814 815 816 817 818 818 818 818 818 818 818 818 818 818 818 818 819 819 820 821 821 822 822 822 823 823 824 824 825 825 827 828 828 828 827 827 827 827 828 829 829 829 829 829 829 830 830 830
770 773 776 780 782 783 784 785 787 788 790 791 793 794 795 795 796 796 796 796 797 798 800 802 803 804 804 805 805 805 805 806 808 810 811 813 814 815 817 818 819 819 820 820 819 819 819 819 819 819 820 820 820 820 821 822 822 823 823 824 824 825 825 825 826 827 827 829 830 829 829 828 828 828 829 830 830 830 830 831 831 831 831 831 831
771 774 777 780 782 784 784 786 787 788 790 792 793 794 796 796 797 797 797 797 798 800 801 803 805 806 806 806 806 806 806 807 809 810 812 814 815 817 818 819 820 821 821 821 820 820 821 821 820 821 821 822 822 822 823 824 824 824 825 825 826 826 827 827 828 828 829 830 830 830 829 829 829 830 831 831 831 831 832 832 832 832 832 833 832
773 776 778 781 783 784 785 786 787 789 790 792 794 795 796 797 798 798 798 798 799 801 803 805 806 807 807 807 807 807 807 808 810 811 813 815 816 818 819 820 821 822 822 822 822 822 822 822 822 823 823 823 824 824 825 826 826 826 827 827 827 828 828 829 829 830 830 830 830 830 830 831 831 832 832 832 832 833 833 834 834 834 834 834 834
774 777 779 781 783 785 785 786 788 789 790 792 794 795 797 798 798 799 799 800 801 803 805 807 807 808 808 808 808 808 808 809 811 812 814 816 817 819 820 822 823 823 824 824 823 824 824 824 824 824 825 825 826 826 827 827 828 828 828 828 829 829 829 830 830 830 831 831 831 831 831 832 833 833 833 834 834 835 835 835 835 835 835 835 836
775 778 779 781 784 785 786 787 788 790 791 792 794 796 798 798 799 800 801 801 803 805 807 808 809 809 809 809 809 809 810 811 812 814 815 817 818 820 821 823 824 824 825 825 825 825 825 826 826 826 826 827 827 828 828 829 829 830 830 830 830 830 831 831 831 832 832 832 832 832 833 833 834 834 835 835 836 836 836 837 837 837 837 837 837
776 778 780 782 783 785 786 788 789 790 792 793 795 797 799 799 800 801 802 803 805 806 808 810 811 811 811 810 810 810 811 812 813 815 816 818 819 821 822 824 824 825 826 826 827 827 827 827 827 828 828 829 829 830 830 831 831 831 831 831 831 831 832 832 833 833 833 833 833 833 834 834 835 835 836 837 837 837 838 838 838 838 838 838 838
776 778 780 782 783 785 787 788 790 791 792 794 796 798 799 801 802 803 804 805 807 808 810 812 813 813 812 812 812 812 813 814 815 816 818 819 820 821 823 824 825 826 827 828 828 829 829 829 829 829 830 830 831 831 832 832 832 832 832 832 832 832 833 833 834 834 834 834 835 835 835 835 836 836 837 838 838 838 838 839 839 839 839 839 839
777 779 781 783 784 786 787 789 791 792 794 795 797 799 800 802 803 804 806 807 809 810 812 814 814 814 814 814 814 814 815 816 817 818 819 820 821 822 823 825 826 827 828 829 829 830 830 830 830 831 831 832 832 832 833 833 833 833 833 833 833 833 834 834 835 835 835 835 836 836 836 837 837 838 839 839 839 839 840 840 840 840 840 840 840
777 780 782 783 785 787 788 790 791 793 795 797 798 800 801 803 804 806 807 809 810 812 814 815 816 816 816 815 816 816 817 818 819 820 821 822 822 823 824 825 826 827 829 829 830 830 831 831 832 832 833 833 833 833 834 834 834 835 835 835 835 835 835 835 835 835 835 836 836 837 838 838 839 839 840 840 840 841 841 841 841 841 841 842 842
779 782 783 785 786 788 789 791 792 794 796 798 800 801 802 804 805 807 808 810 812 813 815 816 816 817 817 817 817 818 819 820 821 822 822 823 824 824 825 826 827 828 829 830 831 831 831 832 833 833 833 834 834 835 835 835 836 836 836 836 836 836 836 835 835 835 836 836 837 838 839 839 840 840 841 841 841 842 842 842 843 843 843 843 843
781 783 785 787 788 789 791 792 794 796 798 799 801 802 803 804 806 807 809 811 812 814 815 816 817 817 818 818 819 819 820 821 822 823 824 825 825 825 826 827 828 829 830 830 831 832 832 833 834 834 834 835 835 836 836 837 837 838 838 838 838 837 837 837 836 836 837 837 837 838 839 840 840 841 842 842 842 842 843 843 844 844 844 844 845
783 785 787 788 789 791 792 794 796 797 799 800 802 802 803 805 806 808 809 811 813 814 815 816 816 817 818 819 819 820 821 822 823 824 825 826 827 827 827 828 829 830 831 831 831 832 833 834 835 835 835 836 836 837 838 838 839 839 840 839 839 839 838 838 838 838 838 838 839 839 840 840 841 842 842 843 843 843 844 844 844 845 845 846 846
784 786 788 790 791 793 794 796 797 799 800 801 802 803 804 805 806 808 809 811 812 814 814 815 816 817 818 818 820 820 822 822 823 825 826 827 828 828 828 829 830 831 831 832 832 833 835 835 836 836 837 837 838 838 839 840 840 841 841 841 840 840 840 840 840 840 840 840 840 841 841 842 842 843 844 844 844 844 845 845 845 845 846 846 847
785 787 789 791 792 794 795 797 798 799 801 802 803 804 804 805 807 808 809 811 812 813 814 814 815 816 817 818 820 820 822 823 824 826 827 828 829 829 830 830 831 831 832 832 833 834 835 836 837 837 838 838 839 840 840 841 841 842 842 841 841 841 841 841 841 842 842 842 842 843 843 843 844 844 845 845 845 846 846 846 847 847 847 847 848
788 789 790 792 793 795 796 797 798 800 801 802 803 804 805 806 808 809 810 811 812 813 814 815 816 817 818 819 820 821 822 823 825 826 828 829 829 830 831 831 831 832 832 833 834 835 836 837 838 838 839 839 840 841 841 842 842 842 842 842 842 842 843 843 843 843 844 844 844 844 845 845 845 846 846 846 846 847 847 847 848 848 848 848 848
789 791 792 793 794 795 796 798 799 801 802 803 804 805 807 808 809 810 812 813 814 815 816 817 817 818 819 819 820 821 823 824 825 827 828 829 830 831 831 832 831 832 833 834 835 836 837 838 839 840 840 841 841 842 842 843 843 843 843 843 843 844 844 844 845 845 845 845 846 846 846 847 847 847 847 847 848 848 848 848 849 849 849 849 849
790 792 793 795 796 797 798 799 801 802 803 805 806 806 807 809 810 812 813 814 816 817 818 818 819 819 820 820 821 822 823 824 826 827 828 829 830 831 832 832 832 832 833 834 835 836 837 838 840 841 841 842 842 842 843 844 844 844 844 845 845 845 845 846 846 846 847 847 847 848 848 848 849 849 849 849 849 849 849 849 849 850 850 850 850
791 793 794 795 796 798 799 800 801 803 804 805 806 807 808 810 811 813 814 816 817 818 819 820 820 820 821 822 822 823 824 825 826 827 828 829 830 831 832 832 832 833 833 834 835 836 837 838 840 841 842 843 843 844 844 845 845 845 846 846 846 846 847 847 847 848 848 849 849 850 850 850 850 850 850 850 850 850 850 850 850 850 851 851 851
793 793 794 795 796 797 799 800 802 803 804 805 807 808 810 811 813 814 816 817 818 819 820 820 821 821 822 823 823 824 825 826 827 827 828 830 831 831 832 832 832 833 833 834 835 837 837 838 840 841 843 843 844 845 845 846 846 846 847 847 847 847 848 848 849 849 849 850 850 851 852 852 852 852 852 852 852 851 851 851 851 851 851 852 852
792 793 793 794 795 797 798 800 802 803 804 806 807 809 811 812 814 815 817 818 819 820 821 821 822 822 823 824 824 825 826 827 827 828 829 830 831 832 832 832 833 833 834 835 836 837 838 838 840 841 843 844 845 846 847 847 847 848 848 848 848 849 849 849 850 850 850 851 851 852 853 854 854 854 854 854 853 853 852 852 852 852 852 853 853
790 790 792 793 795 797 798 800 802 804 806 807 809 810 811 813 815 816 817 818 819 820 821 822 823 823 824 824 825 826 827 828 828 829 830 831 832 832 833 833 833 834 835 836 837 837 838 838 839 841 843 845 846 846 847 848 848 849 849 849 849 850 850 850 851 851 852 852 852 853 853 854 855 855 855 855 855 855 854 854 853 853 854 854 854
789 789 791 793 794 796 798 800 803 805 807 808 809 810 812 813 815 816 817 818 819 820 821 822 823 824 825 825 826 827 828 828 829 830 830 831 832 833 833 833 833 834 835 837 838 838 839 839 840 842 843 845 846 847 847 848 849 849 850 850 850 850 851 851 851 852 853 853 853 853 854 854 855 855 856 856 856 856 856 855 855 855 854 854 855
787 789 790 792 794 796 798 800 802 804 806 807 809 810 811 813 814 815 816 818 818 820 821 822 823 824 825 826 827 827 828 829 829 830 831 832 833 833 833 833 834 834 836 837 839 840 840 840 841 842 843 845 846 847 848 848 849 850 850 851 851 851 852 852 852 853 853 854 854 854 855 855 856 856 856 856 857 858 858 857 857 856 855 855 856
785 787 789 791 793 795 796 798 799 801 803 805 807 809 811 812 814 815 816 817 818 820 821 822 823 824 825 826 827 828 829 829 830 830 831 832 833 833 833 834 834 835 836 837 839 840 840 841 841 842 844 845 846 847 848 849 850 851 851 851 852 852 852 853 853 854 854 855 855 855 856 856 857 857 857 857 858 858 859 859 858 857 857 856 856
787 787 788 790 792 794 795 797 798 800 802 804 806 808 810 812 813 814 815 817 819 820 821 822 822 823 824 826 827 828 828 829 829 830 831 832 833 833 833 834 834 835 837 838 839 840 841 841 842 843 844 845 846 847 848 849 850 851 852 852 852 853 854 854 854 854 855 856 856 856 857 857 858 858 858 859 859 859 859 860 860 859 858 857 857
788 788 788 790 792 793 794 796 797 799 801 803 805 808 809 811 812 814 815 816 818 819 820 821 821 821 823 825 826 827 828 829 829 830 831 832 833 833 834 834 835 836 837 838 839 840 841 842 843 843 844 845 847 848 849 850 851 852 852 853 853 854 855 855 855 855 856 856 857 857 858 858 859 859 859 859 860 860 860 861 861 860 860 859 859
787 788 790 790 792 793 794 795 796 797 799 800 802 805 807 809 811 812 814 815 816 817 819 819 820 821 822 824 826 827 828 829 829 829 831 832 833 833 834 834 835 836 837 838 839 840 841 842 843 844 845 846 847 848 849 850 851 852 853 853 854 855 856 856 856 856 856 857 858 858 859 859 859 859 860 860 861 861 861 861 861 861 861 860 860
786 788 790 791 792 794 795 796 798 799 799 800 801 802 804 806 809 810 811 812 814 815 817 818 820 820 821 823 825 827 828 829 828 829 831 832 833 833 834 835 835 836 837 838 839 840 841 842 843 844 845 846 847 848 849 850 852 853 853 854 855 856 856 857 857 857 857 857 858 859 859 860 860 860 860 861 861 862 862 862 863 863 862 861 861
786 788 790 791 792 793 796 798 800 801 802 802 802 802 803 804 807 808 809 810 811 813 815 817 819 819 820 821 823 825 827 828 828 829 831 831 832 833 834 835 835 836 837 838 839 840 841 842 843 844 845 846 847 848 849 851 852 853 854 854 855 856 857 857 858 858 858 858 859 860 860 860 860 860 861 862 862 862 863 863 864 864 863 862 862
787 788 790 791 792 794 796 799 800 801 802 802 802 802 802 803 805 807 808 809 810 811 814 816 817 818 819 820 822 824 826 828 828 830 831 831 832 832 833 834 835 836 837 838 839 840 841 842 843 845 846 847 848 849 850 851 852 853 854 855 855 856 857 858 858 858 858 859 859 860 861 861 861 861 861 862 863 863 864 864 864 864 864 863 863
787 788 790 792 794 796 797 797 798 798 799 800 800 800 801 803 804 806 807 808 809 810 812 814 815 817 819 820 822 824 826 827 828 830 831 832 832 832 833 834 835 836 837 839 839 840 841 842 843 845 846 847 848 849 850 851 852 853 854 855 855 856 857 858 858 859 859 859 860 861 861 861 861 862 862 863 863 864 864 864 865 865 865 864 864
787 788 791 794 796 796 795 794 794 795 797 798 799 799 800 802 803 805 806 806 807 808 809 812 815 817 819 820 822 824 826 827 828 830 831 832 832 832 832 833 834 835 837 838 839 840 841 842 843 845 846 847 848 849 850 851 852 853 854 855 856 856 857 858 859 859 859 860 860 861 861 861 862 862 863 863 864 864 864 865 865 866 866 865 865
786 789 793 796 795 793 791 791 793 794 795 795 795 797 798 798 800 802 803 804 805 806 808 811 814 817 819 820 822 824 825 827 828 830 831 832 832 832 832 833 834 835 836 837 839 840 841 842 843 844 846 847 848 848 850 851 852 853 854 855 856 857 858 858 859 859 860 860 861 861 862 862 862 862 863 864 864 865 865 866 866 866 867 866 867
787 790 793 793 792 791 791 791 792 791 789 787 787 789 791 793 797 800 802 803 805 805 807 810 814 817 818 820 822 824 825 826 828 829 830 831 831 832 832 832 833 834 836 837 838 839 841 842 843 844 845 846 847 848 849 850 851 852 854 855 856 857 858 859 859 860 860 861 861 862 862 862 862 863 863 864 865 865 866 866 867 867 867 867 867
787 788 788 788 789 790 789 789 788 787 786 785 786 786 787 788 791 796 800 803 805 806 808 810 812 814 817 820 822 824 825 826 828 829 830 831 831 831 831 832 833 834 835 836 837 839 840 842 843 844 845 846 847 848 849 850 851 852 853 854 856 857 858 859 859 860 860 861 862 862 862 862 863 863 864 864 865 866 866 866 867 867 867 868 868
785 786 786 787 787 785 784 784 785 785 786 787 787 788 789 790 790 792 797 801 804 806 807 809 810 813 815 818 822 824 825 826 827 829 830 830 831 831 831 832 832 833 834 836 837 838 839 841 842 844 845 845 846 847 849 850 850 851 853 854 855 857 858 859 859 860 860 861 862 862 862 862 863 864 864 865 865 866 866 866 866 867 867 867 868
785 785 785 785 784 782 781 782 785 785 785 786 787 788 790 792 794 795 797 800 803 805 806 808 810 812 813 815 820 824 825 826 826 828 829 829 830 830 831 831 832 832 834 835 836 837 839 840 841 843 844 845 845 847 848 849 850 851 853 854 855 857 858 859 859 860 860 861 862 862 862 863 863 864 864 865 865 866 866 866 866 867 867 867 867
784 785 784 784 782 780 781 782 783 783 785 786 787 788 789 792 795 798 799 801 802 803 804 806 808 809 811 813 819 823 825 825 826 826 828 829 829 829 830 830 831 831 833 834 835 836 838 839 841 842 844 845 845 846 847 848 850 851 853 854 856 857 857 859 860 860 860 861 862 862 863 863 863 864 865 865 865 865 866 866 866 866 866 867 867
784 784 783 782 780 779 780 781 781 782 784 786 787 788 789 791 793 797 800 801 801 801 802 804 806 808 809 811 815 821 823 824 824 825 826 828 828 828 828 829 830 830 831 833 834 835 837 839 840 842 843 845 846 846 847 848 850 852 854 855 856 857 858 859 859 860 861 861 862 862 862 863 864 864 865 865 865 865 865 866 866 866 866 866 866
785 784 782 780 779 779 779 778 779 781 783 784 785 787 788 790 792 795 799 801 800 799 800 802 805 806 808 809 813 817 820 821 822 823 825 826 827 827 827 828 829 830 831 832 833 835 837 839 840 841 842 844 846 847 847 848 850 853 854 856 856 857 858 858 859 860 860 861 861 861 861 863 864 864 865 865 865 865 865 866 866 866 866 866 866
783 782 780 779 779 779 778 777 779 780 781 782 784 786 788 790 792 795 799 801 800 798 798 800 803 805 806 808 811 814 816 818 820 821 823 824 825 825 825 827 828 829 830 832 833 835 836 838 839 841 842 843 845 846 846 848 850 852 853 855 857 857 858 858 859 859 860 861 861 860 861 862 863 864 864 865 865 865 865 866 866 866 866 866 866
780 779 779 780 779 778 777 778 779 780 781 783 785 786 788 790 792 795 800 802 800 798 798 799 801 803 805 807 809 811 813 815 817 819 821 822 823 824 824 826 827 828 830 831 832 834 835 837 838 839 841 843 844 845 846 847 849 852 853 855 856 857 858 858 858 859 859 860 860 861 861 861 862 863 864 864 865 865 865 866 866 866 866 866 866
778 777 778 779 778 778 778 779 780 782 784 786 788 789 789 791 792 795 799 801 800 799 798 799 800 801 803 805 807 809 811 813 816 817 819 820 821 822 823 825 827 828 829 829 831 832 834 836 837 838 840 842 844 845 846 847 848 850 852 854 856 857 858 858 857 858 859 859 860 861 861 861 862 863 863 864 865 865 865 866 866 866 866 866 867
780 780 780 781 781 782 783 784 786 788 791 792 792 792 792 791 792 795 798 800 800 798 798 798 799 800 801 803 805 807 809 812 814 816 817 819 820 821 822 824 826 827 828 828 829 831 832 834 836 837 838 839 841 844 846 847 848 848 849 851 854 857 857 856 856 858 858 859 860 860 861 861 862 863 863 864 864 865 865 866 866 866 867 867 868
787 787 789 790 791 790 790 790 792 794 796 796 796 796 795 794 794 795 797 799 799 799 798 798 798 800 801 803 805 806 808 811 813 815 816 817 818 819 820 822 824 825 826 827 828 830 831 833 834 836 837 838 839 842 844 846 848 848 847 847 849 851 851 853 856 858 858 859 859 860 861 861 862 863 863 864 864 865 865 866 866 866 867 868 868
790 790 792 794 795 795 795 795 796 797 798 798 799 799 799 798 797 797 798 798 799 800 800 800 800 801 802 803 804 806 808 810 811 813 814 815 816 817 819 820 822 823 825 826 827 828 830 831 833 834 836 837 838 840 842 844 846 847 847 846 846 847 848 850 853 855 857 859 858 859 860 861 862 863 863 864 864 865 865 866 866 867 867 868 869
790 790 790 789 789 793 795 796 796 796 796 798 799 800 800 800 800 799 799 798 798 799 800 800 801 802 803 803 804 805 807 809 810 811 812 813 814 815 817 819 820 821 822 823 825 826 828 830 831 833 834 835 836 838 840 842 844 844 845 846 846 846 847 848 849 851 854 857 858 858 859 860 861 862 863 863 864 864 865 866 866 867 868 868 869
791 791 789 786 784 787 790 792 794 793 793 794 796 797 798 799 799 799 798 797 797 797 798 800 801 802 803 803 804 804 805 807 808 808 809 810 811 813 815 817 818 819 820 822 823 825 827 828 829 831 832 833 835 837 839 840 841 842 843 844 845 846 848 849 849 850 852 855 857 857 858 860 861 862 863 863 864 864 865 866 866 867 868 868 869
792 791 791 787 783 783 787 790 792 791 790 791 793 795 796 796 797 797 796 796 796 796 797 799 800 801 802 802 802 803 804 806 807 807 807 808 809 811 813 815 816 818 819 820 822 823 825 826 827 829 830 832 833 835 837 838 839 840 841 842 843 845 846 848 849 849 851 853 854 855 857 858 860 861 862 863 863 864 865 865 866 867 867 868 869
792 792 792 790 785 783 786 790 791 791 789 790 792 793 795 795 795 795 795 794 794 795 796 797 799 800 801 801 801 802 803 804 804 804 805 807 808 810 812 813 815 816 818 819 820 822 823 825 826 828 830 831 832 833 835 837 838 839 840 841 841 842 843 844 846 847 849 850 852 854 856 857 859 860 861 862 863 863 864 865 866 866 867 868 869